Location: ????????
(31.3219°N, 45.2478°E)
Time: 05:46:31
(UTC+00:00)

Daily predictions for brighter satellites

Satellite Brightness Start Highest point End
(mag) Time Altitude Azimuth Time Altitude Azimuth Time Altitude Azimuth
ERS-2 2.4 00:02:18 33° SSE 00:03:46 65° ENE 00:07:23 10° N
Iridium 2 3.6 00:03:25 10° N 00:07:11 86° E 00:08:07 50° S
STARLINK-1271 4.5 00:03:09 10° NNW 00:07:12 51° NE 00:11:13 10° ESE
STARLINK-58 3.9 00:09:17 36° SE 00:09:22 36° SE 00:12:18 10° ENE
STARLINK-22 2.9 00:10:27 76° SE 00:10:27 76° SE 00:13:38 10° NE
Cosmos 2221 3.2 00:07:12 10° N 00:11:26 54° E 00:15:42 10° SSE
STARLINK-1154 4.2 00:08:06 10° NW 00:12:11 57° NE 00:16:15 10° SE
SL-16 R/B 4.0 00:13:22 18° W 00:13:22 18° W 00:16:31 10° NW
CZ-4C R/B 4.1 00:09:42 12° SSE 00:12:47 46° ENE 00:16:16 10° N
STARLINK-1197 4.0 00:13:02 10° NW 00:17:09 64° NE 00:21:15 10° SE
Cosmos 2184 Rocket 4.5 00:16:29 30° WSW 00:18:38 40° W 00:24:23 10° N
STARLINK-48 4.4 00:19:11 28° S 00:20:32 38° SE 00:24:10 10° ENE
Cosmos 2058 2.9 00:19:08 27° S 00:21:22 80° E 00:25:33 10° N
STARLINK-1198 3.8 00:18:01 10° NW 00:22:10 73° NE 00:26:17 10° SE
Cosmos 2297 Rocket 3.4 00:21:11 10° NW 00:24:53 21° W 00:24:53 21° W
Cosmos 1295 Rocket 4.5 00:21:13 19° S 00:25:54 78° W 00:32:15 10° N
STARLINK-1199 3.6 00:22:58 10° NW 00:27:06 82° NE 00:31:15 10° SE
Cosmos 2150 Rocket 4.3 00:23:33 10° N 00:28:42 66° ENE 00:33:47 10° SSE
Lacrosse 4 Rocket 1.3 00:25:02 10° NNW 00:29:18 82° WSW 00:33:25 10° SSE
STARLINK-1301 3.3 00:30:00 40° WSW 00:30:58 59° NW 00:34:22 10° NE
Cosmos 2082 4.0 00:25:45 10° NW 00:31:02 43° WSW 00:36:02 11° S
STARLINK-1210 3.5 00:27:57 10° NW 00:32:06 89° SW 00:36:14 10° SE
STARLINK-42 3.9 00:31:36 30° WNW 00:32:23 35° NW 00:35:22 10° NNE
STARLINK-1307 3.2 00:32:35 38° WSW 00:33:43 65° NW 00:37:09 10° NE
Meteor 1-28 Rocket 3.5 00:32:33 31° SW 00:33:47 42° W 00:37:24 10° NNW
ARIANE 5 R/B 3.6 00:30:16 10° NNW 00:34:30 28° WNW 00:36:23 22° WSW
Shenzhou-11 Module 2.5 00:34:25 31° SSE 00:34:36 32° SE 00:36:50 10° ENE
Cosmos 2322 Rocket 2.5 00:30:11 14° S 00:34:57 65° ESE 00:40:31 10° NNE
H-2A R/B 2.0 00:31:29 12° S 00:35:18 67° WSW 00:39:40 10° NNW
STARLINK-1290 3.3 00:35:03 35° WSW 00:36:15 60° NW 00:39:40 10° NE
NOSS 2-1 (E) 2.9 00:34:52 30° SSW 00:36:28 85° ESE 00:39:52 10° NNE
STARLINK-1219 3.5 00:32:55 10° NW 00:37:03 79° SW 00:41:11 10° SE
STARLINK-1316 3.3 00:36:36 35° W 00:37:31 50° NW 00:40:33 10° NNE
Cosmos 2263 Rocket 3.6 00:33:03 10° N 00:38:17 40° ENE 00:43:28 10° SE
STARLINK-1257 3.3 00:37:29 34° W 00:38:25 48° NW 00:41:27 10° NNE
ADEOS II 3.8 00:35:40 10° NNW 00:38:45 16° WNW 00:40:26 14° W
STARLINK-1297 3.4 00:37:33 32° WSW 00:38:52 56° NW 00:42:16 10° NE
STARLINK-1256 3.4 00:38:20 33° W 00:39:20 47° NW 00:42:20 10° NNE
STARLINK-1311 3.6 00:39:05 29° W 00:39:56 37° NW 00:42:44 10° NNE
STARLINK-1213 3.4 00:39:13 32° W 00:40:14 46° NW 00:43:14 10° NNE
STARLINK-1263 3.4 00:40:04 31° W 00:41:07 44° NW 00:44:07 10° NNE
In-Cosmos 22 Rocket 4.3 00:36:54 17° SSW 00:41:19 64° W 00:46:56 10° N
STARLINK-1211 3.5 00:37:55 10° NW 00:42:02 70° SW 00:46:08 10° SE
STARLINK-1259 3.5 00:40:58 29° W 00:42:03 43° NW 00:45:03 10° NNE
STARLINK-1265 3.5 00:41:18 29° W 00:42:26 43° NW 00:45:26 10° NNE
STARLINK-1285 3.5 00:41:48 29° W 00:42:56 42° NW 00:45:55 10° NNE
Cosmos 1892 2.9 00:42:00 24° SSW 00:44:05 52° W 00:47:49 10° N
deb Chang Zheng 4 3.6 00:40:20 10° NNE 00:44:38 83° ESE 00:48:41 11° S
STARLINK-1268 3.6 00:43:33 27° W 00:44:43 40° NW 00:47:40 10° NNE
STARLINK-1296 3.6 00:43:33 27° W 00:44:46 40° NW 00:47:43 10° NNE
STARLINK-1260 3.7 00:44:25 26° W 00:45:39 39° NW 00:48:36 10° NNE
STARLINK-1318 3.7 00:45:17 25° W 00:46:34 38° NW 00:49:30 10° NNE
STARLINK-62 3.0 00:45:15 29° WSW 00:46:40 63° NW 00:49:49 10° NE
STARLINK-1245 3.5 00:42:54 10° NW 00:47:00 62° SW 00:51:04 10° SSE
STARLINK-1275 3.7 00:46:08 24° W 00:47:26 37° NW 00:50:22 10° NNE
CZ-2C R/B 3.2 00:42:22 10° NNE 00:47:27 55° E 00:52:29 10° S
STARLINK-1309 3.8 00:47:01 24° W 00:48:21 36° NW 00:51:17 10° NNE
STARLINK-34 3.1 00:47:04 27° WSW 00:48:33 59° NW 00:51:42 10° NE
STARLINK-1282 3.8 00:47:52 23° W 00:49:15 35° NW 00:52:09 10° NNE
STARLINK-1029 2.8 00:48:35 26° SW 00:50:13 90° WNW 00:53:23 10° NE
STARLINK-1313 4.1 00:48:57 20° W 00:50:21 29° NW 00:53:09 10° NNE
Cosmos 2298 Rocket 4.0 00:45:55 10° NNW 00:51:10 65° WSW 00:56:23 10° S
STARLINK-1279 4.2 00:49:51 19° W 00:51:18 29° NW 00:54:04 10° NNE
SL-8 Rocket 4.1 00:45:00 10° S 00:51:19 86° E 00:57:38 10° N
SAR-Lupe-4 4.0 00:48:18 10° SSE 00:51:51 64° ENE 00:55:24 10° N
STARLINK-1233 3.7 00:47:55 10° NW 00:51:57 54° SW 00:55:59 10° SSE
STARLINK-1298 4.0 00:50:29 21° W 00:51:58 33° NW 00:54:50 10° NNE
STARLINK-1293 4.0 00:51:22 20° W 00:52:53 32° NW 00:55:44 10° NNE
CZ-4B R/B 2.8 00:50:52 10° SE 00:53:41 36° ENE 00:56:31 10° N
STARLINK-1317 4.3 00:51:59 18° W 00:53:57 33° NW 00:57:08 10° NNE
STARLINK-1255 4.1 00:53:03 19° W 00:54:39 31° NW 00:57:28 10° NNE
STARLINK-1204 3.8 00:52:56 10° NW 00:56:56 48° SW 01:00:54 10° SSE
STARLINK-64 3.3 00:55:16 18° SSW 00:57:49 71° SE 01:01:24 10° NE
Cosmos 2227 Rocket 4.0 00:59:36 10° W 01:00:58 11° W 01:00:58 11° W
IDEFIX/ARIANE 42P 3.4 00:56:24 10° N 01:01:04 33° WNW 01:05:06 13° SW
STARLINK-1308 4.3 00:57:45 12° SSW 01:01:20 47° SE 01:05:20 10° NE
STARLINK-1238 3.9 00:57:59 10° WNW 01:01:54 42° SW 01:05:48 10° SSE
SL-16 R/B 2.4 00:58:18 13° SW 01:03:10 55° WNW 01:08:44 10° N
STARLINK-1201 4.1 01:03:02 10° WNW 01:06:51 37° SW 01:10:40 10° SSE
SAR-Lupe-1 3.9 01:04:14 10° S 01:07:45 81° WSW 01:11:18 10° NNW
Cosmos 1869 4.2 01:05:56 10° NNW 01:09:13 27° W 01:12:30 10° SSW
STARLINK-1304 4.0 01:07:18 11° SSW 01:11:15 60° SE 01:15:20 10° NE
STARLINK-1286 3.9 01:07:41 11° SSW 01:11:39 65° SE 01:15:47 10° NE
STARLINK-1206 4.3 01:08:04 10° WNW 01:11:47 33° SW 01:15:30 10° SSE
Cosmos 1125 Rocket 3.4 01:06:59 10° NNW 01:12:11 78° WSW 01:17:21 10° S
USA 234 3.9 01:09:33 10° NNE 01:15:40 44° NW 01:21:47 10° WSW
ADEOS 3.6 01:11:03 10° N 01:16:17 83° WNW 01:21:29 10° SSW
STARLINK-1205 4.4 01:13:08 10° WNW 01:16:45 29° SW 01:20:21 10° S
Meteor 1-31 Rocket 4.1 01:13:52 10° NNE 01:17:28 40° E 01:21:04 10° S
Skynet4D Del rocket 3.8 01:12:09 10° WSW 01:17:38 55° S 01:22:50 10° ESE
Cosmos 1408 3.6 01:15:23 10° SW 01:18:40 30° W 01:21:58 10° NNW
Cosmos 2333 Rocket 4.3 01:14:24 10° SSE 01:18:53 25° ESE 01:23:24 10° NE
STARLINK-1299 3.7 01:15:39 10° SW 01:19:51 84° NW 01:24:06 10° NE
STARLINK-61 4.2 01:18:45 10° SSW 01:22:31 48° SE 01:26:17 10° NE
STARLINK-1306 3.7 01:19:55 10° SW 01:24:06 89° WNW 01:28:18 10° NE
ALOS 3.8 01:20:20 10° NNE 01:24:39 37° E 01:28:57 10° SSE
Cosmos 1339 Rocket 4.4 01:22:34 10° N 01:28:38 74° W 01:34:44 10° S
STARLINK-1281 3.6 01:27:01 10° SW 01:31:09 84° NW 01:35:18 10° NE
